TimeCST,TemperatureF,Dew PointF,Humidity,Sea Level PressureIn,VisibilityMPH,Wind Direction,Wind SpeedMPH,Gust SpeedMPH,PrecipitationIn,Events,Conditions,WindDirDegrees,DateUTC
12:55 AM,30.2,30.2,100,30.07,9.0,North,5.8,-,N/A,,Light Freezing Drizzle,350,2013-01-16 06:55:00
1:55 AM,30.2,30.2,100,30.08,7.0,North,5.8,-,N/A,,Light Freezing Drizzle,350,2013-01-16 07:55:00
2:55 AM,30.2,30.2,100,30.10,10.0,NNW,3.5,-,N/A,,Overcast,330,2013-01-16 08:55:00
3:08 AM,30.2,30.2,100,30.08,10.0,North,5.8,-,N/A,,Overcast,360,2013-01-16 09:08:00
3:34 AM,30.2,30.2,100,30.06,10.0,North,5.8,-,N/A,,Light Freezing Drizzle,350,2013-01-16 09:34:00
3:55 AM,30.2,30.2,100,30.10,10.0,NNW,3.5,-,N/A,,Overcast,330,2013-01-16 09:55:00
4:55 AM,30.2,30.2,100,30.06,10.0,NNW,4.6,-,N/A,,Overcast,330,2013-01-16 10:55:00
5:55 AM,30.4,30.2,99,30.08,10.0,NNW,4.6,-,N/A,,Overcast,330,2013-01-16 11:55:00
6:55 AM,30.6,30.0,98,30.12,10.0,NW,3.5,-,N/A,,Overcast,320,2013-01-16 12:55:00
7:50 AM,30.2,30.2,100,30.14,10.0,NW,5.8,-,N/A,,Overcast,310,2013-01-16 13:50:00
7:55 AM,30.7,30.6,99,30.15,10.0,WNW,5.8,-,N/A,,Overcast,300,2013-01-16 13:55:00
8:35 AM,30.2,30.2,100,30.16,10.0,NW,3.5,-,N/A,,Overcast,320,2013-01-16 14:35:00
8:55 AM,30.7,30.2,98,30.16,10.0,NW,3.5,-,N/A,,Overcast,310,2013-01-16 14:55:00
9:55 AM,30.9,30.7,99,30.15,10.0,WNW,4.6,-,N/A,,Overcast,300,2013-01-16 15:55:00
10:55 AM,31.5,30.0,94,30.14,10.0,Calm,Calm,-,N/A,,Overcast,0,2013-01-16 16:55:00
11:06 AM,32.0,30.2,93,30.13,10.0,Calm,Calm,-,N/A,,Overcast,0,2013-01-16 17:06:00
11:55 AM,31.6,29.8,93,30.12,10.0,West,4.6,-,N/A,,Overcast,280,2013-01-16 17:55:00
12:55 PM,32.0,29.3,90,30.12,10.0,Calm,Calm,-,N/A,,Overcast,0,2013-01-16 18:55:00
1:26 PM,32.0,30.2,93,30.13,10.0,WNW,3.5,-,N/A,,Overcast,290,2013-01-16 19:26:00
1:48 PM,32.0,30.2,93,30.12,10.0,Calm,Calm,-,N/A,,Overcast,0,2013-01-16 19:48:00
1:55 PM,32.4,29.5,89,30.12,10.0,Calm,Calm,-,N/A,,Overcast,0,2013-01-16 19:55:00
2:55 PM,32.4,29.5,89,30.12,10.0,West,3.5,-,N/A,,Partly Cloudy,260,2013-01-16 20:55:00
3:55 PM,32.5,28.9,87,30.13,10.0,Calm,Calm,-,N/A,,Scattered Clouds,0,2013-01-16 21:55:00
4:55 PM,32.4,29.1,88,30.13,10.0,NW,3.5,-,N/A,,Partly Cloudy,310,2013-01-16 22:55:00
5:55 PM,32.0,30.0,92,30.14,10.0,Calm,Calm,-,N/A,,Mostly Cloudy,0,2013-01-16 23:55:00
6:55 PM,32.0,31.1,96,30.15,10.0,Calm,Calm,-,N/A,,Overcast,0,2013-01-17 00:55:00
7:55 PM,32.2,31.6,98,30.16,10.0,Calm,Calm,-,N/A,,Overcast,0,2013-01-17 01:55:00
8:55 PM,31.8,30.7,96,30.15,10.0,Calm,Calm,-,N/A,,Scattered Clouds,0,2013-01-17 02:55:00
9:55 PM,31.8,30.4,94,30.15,10.0,NW,3.5,-,N/A,,Clear,310,2013-01-17 03:55:00
10:55 PM,31.5,30.6,96,30.15,10.0,NNW,3.5,-,N/A,,Overcast,330,2013-01-17 04:55:00
11:55 PM,31.3,31.1,99,30.15,10.0,Calm,Calm,-,N/A,,Overcast,0,2013-01-17 05:55:00